| time (UTC) | temp F | wind direction | speed MPH | gust MPH | rain 1hr in | rain 24hr in | rain mn in | humidity % | barometer mb |
| 20260502130217 | 75 | 172 | 3.0 | 6.0 | 0.00 | 0.00 | 0.00 | 44 | 1015.7 |
| 20260502123217 | 75 | 188 | 5.0 | 9.0 | 0.00 | 0.00 | 0.00 | 44 | 1016.0 |
| 20260502122216 | 76 | 251 | 1.0 | 3.0 | 0.00 | 0.00 | 0.00 | 43 | 1016.1 |
| 20260502121237 | 77 | 199 | 1.0 | 6.0 | 0.00 | 0.00 | 0.00 | 41 | 1016.3 |
| 20260502120216 | 79 | 160 | 2.0 | 5.0 | 0.00 | 0.00 | 0.00 | 38 | 1016.3 |
| 20260502115217 | 79 | 191 | 6.0 | 10.0 | 0.00 | 0.00 | 0.00 | 39 | 1016.4 |
| 20260502114217 | 78 | 232 | 2.0 | 6.0 | 0.00 | 0.00 | 0.00 | 41 | 1016.4 |
| 20260502113216 | 78 | 210 | 1.0 | 7.0 | 0.00 | 0.00 | 0.00 | 40 | 1016.4 |
| 20260502112217 | 80 | 245 | 2.0 | 4.0 | 0.00 | 0.00 | 0.00 | 38 | 1016.6 |
| 20260502111217 | 81 | 217 | 1.0 | 7.0 | 0.00 | 0.00 | 0.00 | 40 | 1016.6 |
| 20260502110216 | 80 | 309 | 1.0 | 4.0 | 0.00 | 0.00 | 0.00 | 40 | 1016.7 |
| 20260502105216 | 80 | 180 | 2.0 | 7.0 | 0.00 | 0.00 | 0.00 | 38 | 1016.7 |
| 20260502104217 | 80 | 165 | 2.0 | 4.0 | 0.00 | 0.00 | 0.00 | 38 | 1016.8 |
| 20260502103216 | 79 | 161 | 5.0 | 10.0 | 0.00 | 0.00 | 0.00 | 40 | 1017.0 |
| 20260502102217 | 79 | 172 | 2.0 | 6.0 | 0.00 | 0.00 | 0.00 | 40 | 1017.1 |
| 20260502101217 | 80 | 170 | 3.0 | 7.0 | 0.00 | 0.00 | 0.00 | 37 | 1017.2 |
| 20260502100216 | 79 | 180 | 3.0 | 9.0 | 0.00 | 0.00 | 0.00 | 40 | 1017.2 |
| 20260502091217 | 77 | 355 | 0.0 | 1.0 | 0.00 | 0.00 | 0.00 | 42 | 1017.5 |
| 20260502090217 | 75 | 270 | 1.0 | 3.0 | 0.00 | 0.00 | 0.00 | 44 | 1017.7 |
| 20260502071236 | 62 | 177 | 6.0 | 8.0 | 0.00 | 0.00 | 0.00 | 53 | 1018.0 |
| 20260502070216 | 59 | 175 | 3.0 | 7.0 | 0.00 | 0.00 | 0.00 | 55 | 1018.1 |
| 20260502065236 | 58 | 172 | 3.0 | 6.0 | 0.00 | 0.00 | 0.00 | 60 | 1018.1 |
| 20260502064216 | 56 | 172 | 3.0 | 6.0 | 0.00 | 0.00 | 0.00 | 62 | 1018.1 |
| 20260502063257 | 56 | 172 | 1.0 | 4.0 | 0.00 | 0.00 | 0.00 | 66 | 1018.1 |
| 20260502062216 | 54 | 0.0 | 0.0 | 0.00 | 0.00 | 0.00 | 70 | 1018.0 | |
| 20260502061216 | 53 | 0.0 | 0.0 | 0.00 | 0.00 | 0.00 | 75 | 1018.0 | |
| 20260502060236 | 53 | 0.0 | 0.0 | 0.00 | 0.00 | 0.00 | 77 | 1018.1 | |
| 20260502055216 | 52 | 0.0 | 0.0 | 0.00 | 0.00 | 0.00 | 76 | 1018.0 | |
| 20260502054216 | 52 | 0.0 | 0.0 | 0.00 | 0.00 | 0.00 | 76 | 1018.0 | |
| 20260502053216 | 51 | 0.0 | 0.0 | 0.00 | 0.00 | 0.00 | 79 | 1017.9 | |
| 20260502052216 | 50 | 0.0 | 0.0 | 0.00 | 0.00 | 0.00 | 81 | 1017.8 | |
| 20260502051216 | 49 | 0.0 | 0.0 | 0.00 | 0.00 | 0.00 | 82 | 1017.6 | |
| 20260502050216 | 48 | 0.0 | 0.0 | 0.00 | 0.00 | 0.00 | 83 | 1017.8 | |
| 20260502045216 | 47 | 0.0 | 0.0 | 0.00 | 0.00 | 0.00 | 85 | 1017.7 | |
| 20260502044216 | 46 | 0.0 | 0.0 | 0.00 | 0.00 | 0.00 | 86 | 1017.7 | |
| 20260502043216 | 45 | 0.0 | 0.0 | 0.00 | 0.00 | 0.00 | 85 | 1017.7 | |
| 20260502042216 | 44 | 0.0 | 0.0 | 0.00 | 0.00 | 0.00 | 85 | 1017.8 | |
| 20260502041216 | 43 | 0.0 | 0.0 | 0.00 | 0.00 | 0.00 | 85 | 1017.8 | |
| 20260502040216 | 43 | 0.0 | 0.0 | 0.00 | 0.00 | 0.00 | 85 | 1017.8 | |
| 20260502035216 | 43 | 0.0 | 0.0 | 0.00 | 0.00 | 0.00 | 85 | 1017.8 | |
| 20260502034236 | 43 | 0.0 | 0.0 | 0.00 | 0.00 | 0.00 | 85 | 1017.9 | |
| 20260502033216 | 43 | 0.0 | 0.0 | 0.00 | 0.00 | 0.00 | 85 | 1018.1 | |
| 20260502032216 | 43 | 0.0 | 0.0 | 0.00 | 0.00 | 0.00 | 85 | 1018.2 | |
| 20260502031216 | 43 | 0.0 | 0.0 | 0.00 | 0.00 | 0.00 | 84 | 1018.1 | |
| 20260502030216 | 43 | 0.0 | 0.0 | 0.00 | 0.00 | 0.00 | 84 | 1018.1 | |
| 20260502025236 | 43 | 0.0 | 0.0 | 0.00 | 0.00 | 0.00 | 84 | 1018.0 | |
| 20260502024236 | 43 | 0.0 | 0.0 | 0.00 | 0.00 | 0.00 | 84 | 1018.2 | |
| 20260502023216 | 43 | 0.0 | 0.0 | 0.00 | 0.00 | 0.00 | 84 | 1018.3 | |
| 20260502022216 | 43 | 0.0 | 0.0 | 0.00 | 0.00 | 0.00 | 83 | 1018.3 | |
| 20260502021216 | 43 | 0.0 | 0.0 | 0.00 | 0.00 | 0.00 | 83 | 1018.3 | |
| 20260502020235 | 43 | 0.0 | 0.0 | 0.00 | 0.00 | 0.00 | 82 | 1018.4 | |
| 20260502015216 | 43 | 0.0 | 0.0 | 0.00 | 0.00 | 0.00 | 82 | 1018.5 | |
| 20260502014216 | 44 | 0.0 | 0.0 | 0.00 | 0.00 | 0.00 | 82 | 1018.5 | |
| 20260502013215 | 44 | 0.0 | 0.0 | 0.00 | 0.00 | 0.00 | 83 | 1018.6 | |
| 20260502012216 | 44 | 0.0 | 0.0 | 0.00 | 0.00 | 0.00 | 83 | 1018.7 | |
| 20260502011215 | 44 | 0.0 | 0.0 | 0.00 | 0.00 | 0.00 | 82 | 1018.8 | |
| 20260502010216 | 44 | 0.0 | 0.0 | 0.00 | 0.00 | 0.00 | 81 | 1018.9 | |
| 20260502005215 | 44 | 0.0 | 0.0 | 0.00 | 0.00 | 0.00 | 80 | 1019.0 | |
| 20260502004215 | 44 | 0.0 | 0.0 | 0.00 | 0.00 | 0.00 | 79 | 1019.0 | |
| 20260502003215 | 45 | 0.0 | 0.0 | 0.00 | 0.00 | 0.00 | 79 | 1019.0 | |
| 20260502002256 | 45 | 0.0 | 0.0 | 0.00 | 0.00 | 0.00 | 80 | 1019.2 | |
| 20260502001216 | 45 | 0.0 | 0.0 | 0.00 | 0.00 | 0.00 | 80 | 1019.3 | |
| 20260502000215 | 46 | 0.0 | 0.0 | 0.00 | 0.00 | 0.00 | 80 | 1019.4 | |
| 20260501235215 | 46 | 0.0 | 0.0 | 0.00 | 0.00 | 0.00 | 79 | 1019.5 | |
| 20260501234215 | 46 | 0.0 | 0.0 | 0.00 | 0.00 | 0.00 | 78 | 1019.6 | |
| 20260501233215 | 47 | 0.0 | 0.0 | 0.00 | 0.00 | 0.00 | 77 | 1019.6 | |
| 20260501232215 | 47 | 0.0 | 0.0 | 0.00 | 0.00 | 0.00 | 76 | 1019.6 | |
| 20260501231216 | 47 | 0.0 | 0.0 | 0.00 | 0.00 | 0.00 | 76 | 1019.8 | |
| 20260501230215 | 48 | 0.0 | 0.0 | 0.00 | 0.00 | 0.00 | 76 | 1019.8 | |
| 20260501225236 | 48 | 0.0 | 0.0 | 0.00 | 0.00 | 0.00 | 76 | 1019.8 | |
| 20260501224215 | 48 | 0.0 | 0.0 | 0.00 | 0.00 | 0.00 | 75 | 1019.9 | |
| 20260501223215 | 49 | 0.0 | 0.0 | 0.00 | 0.00 | 0.00 | 72 | 1019.9 | |
| 20260501222215 | 49 | 0.0 | 0.0 | 0.00 | 0.00 | 0.00 | 72 | 1019.9 | |
| 20260501221215 | 49 | 0.0 | 0.0 | 0.00 | 0.00 | 0.00 | 71 | 1019.9 | |
| 20260501220215 | 49 | 0.0 | 0.0 | 0.00 | 0.00 | 0.00 | 71 | 1019.9 | |
| 20260501215236 | 50 | 0.0 | 0.0 | 0.00 | 0.00 | 0.00 | 71 | 1019.8 | |
| 20260501214216 | 50 | 0.0 | 0.0 | 0.00 | 0.00 | 0.00 | 69 | 1019.8 | |
| 20260501213236 | 51 | 0.0 | 0.0 | 0.00 | 0.00 | 0.00 | 69 | 1019.8 | |
| 20260501212235 | 51 | 0.0 | 0.0 | 0.00 | 0.00 | 0.00 | 68 | 1019.8 | |
| 20260501211216 | 52 | 0.0 | 0.0 | 0.00 | 0.00 | 0.00 | 68 | 1019.8 | |
| 20260501210216 | 52 | 0.0 | 0.0 | 0.00 | 0.00 | 0.00 | 66 | 1019.8 | |
| 20260501205216 | 53 | 0.0 | 0.0 | 0.00 | 0.00 | 0.00 | 63 | 1019.8 | |
| 20260501204216 | 53 | 0.0 | 0.0 | 0.00 | 0.00 | 0.00 | 61 | 1019.7 | |
| 20260501203215 | 54 | 0.0 | 0.0 | 0.00 | 0.00 | 0.00 | 59 | 1019.8 | |
| 20260501202255 | 55 | 0.0 | 0.0 | 0.00 | 0.00 | 0.00 | 57 | 1019.9 | |
| 20260501201216 | 56 | 0.0 | 0.0 | 0.00 | 0.00 | 0.00 | 55 | 1019.8 | |
| 20260501200236 | 56 | 0.0 | 0.0 | 0.00 | 0.00 | 0.00 | 53 | 1019.8 | |
| 20260501195215 | 57 | 0.0 | 0.0 | 0.00 | 0.00 | 0.00 | 52 | 1019.7 | |
| 20260501194215 | 58 | 0.0 | 0.0 | 0.00 | 0.00 | 0.00 | 50 | 1019.7 | |
| 20260501193216 | 59 | 0.0 | 0.0 | 0.00 | 0.00 | 0.00 | 48 | 1019.6 | |
| 20260501192216 | 59 | 0.0 | 0.0 | 0.00 | 0.00 | 0.00 | 47 | 1019.6 | |
| 20260501191215 | 61 | 0.0 | 0.0 | 0.00 | 0.00 | 0.00 | 43 | 1019.5 | |
| 20260501190215 | 62 | 0.0 | 0.0 | 0.00 | 0.00 | 0.00 | 40 | 1019.5 | |
| 20260501185215 | 63 | 0.0 | 0.0 | 0.00 | 0.00 | 0.00 | 38 | 1019.4 | |
| 20260501184215 | 64 | 0.0 | 0.0 | 0.00 | 0.00 | 0.00 | 36 | 1019.4 | |
| 20260501183255 | 65 | 0.0 | 0.0 | 0.00 | 0.00 | 0.00 | 35 | 1019.4 | |
| 20260501182215 | 66 | 0.0 | 0.0 | 0.00 | 0.00 | 0.00 | 33 | 1019.4 | |
| 20260501181215 | 67 | 0.0 | 0.0 | 0.00 | 0.00 | 0.00 | 32 | 1019.4 | |
| 20260501180215 | 68 | 0.0 | 0.0 | 0.00 | 0.00 | 0.00 | 30 | 1019.4 | |
| 20260501175215 | 69 | 0.0 | 0.0 | 0.00 | 0.00 | 0.00 | 29 | 1019.4 | |
| 20260501174215 | 69 | 83 | 0.0 | 3.0 | 0.00 | 0.00 | 0.00 | 28 | 1019.4 |
| 20260501173215 | 70 | 0.0 | 0.0 | 0.00 | 0.00 | 0.00 | 28 | 1019.4 | |
| 20260501172236 | 70 | 69 | 0.0 | 1.0 | 0.00 | 0.00 | 0.00 | 27 | 1019.4 |
| 20260501171215 | 71 | 78 | 0.0 | 3.0 | 0.00 | 0.00 | 0.00 | 26 | 1019.3 |
| 20260501170355 | 71 | 121 | 1.0 | 4.0 | 0.00 | 0.00 | 0.00 | 26 | 1019.5 |
| 20260501165215 | 72 | 0.0 | 0.0 | 0.00 | 0.00 | 0.00 | 24 | 1019.5 | |
| 20260501164215 | 72 | 0.0 | 2.0 | 0.00 | 0.00 | 0.00 | 25 | 1019.5 | |
| 20260501163215 | 73 | 126 | 2.0 | 7.0 | 0.00 | 0.00 | 0.00 | 24 | 1019.5 |
| 20260501162215 | 73 | 142 | 1.0 | 6.0 | 0.00 | 0.00 | 0.00 | 23 | 1019.5 |
| 20260501161215 | 73 | 111 | 1.0 | 3.0 | 0.00 | 0.00 | 0.00 | 22 | 1019.6 |
| 20260501160215 | 73 | 0.0 | 0.0 | 0.00 | 0.00 | 0.00 | 23 | 1019.7 | |
| 20260501154215 | 74 | 128 | 1.0 | 5.0 | 0.00 | 0.00 | 0.00 | 22 | 1019.7 |
| 20260501153215 | 74 | 0.0 | 3.0 | 0.00 | 0.00 | 0.00 | 21 | 1019.9 | |
| 20260501152215 | 75 | 140 | 2.0 | 4.0 | 0.00 | 0.00 | 0.00 | 22 | 1019.9 |
| 20260501151215 | 75 | 124 | 2.0 | 3.0 | 0.00 | 0.00 | 0.00 | 22 | 1020.0 |
| 20260501150215 | 75 | 91 | 0.0 | 2.0 | 0.00 | 0.00 | 0.00 | 20 | 1020.2 |
| 20260501145215 | 75 | 105 | 1.0 | 4.0 | 0.00 | 0.00 | 0.00 | 20 | 1020.3 |
| 20260501144215 | 75 | 0.0 | 2.0 | 0.00 | 0.00 | 0.00 | 20 | 1020.4 | |
| 20260501143217 | 76 | 74 | 0.0 | 1.0 | 0.00 | 0.00 | 0.00 | 20 | 1020.5 |
| 20260501142217 | 76 | 94 | 0.0 | 1.0 | 0.00 | 0.00 | 0.00 | 20 | 1020.5 |
| 20260501141237 | 76 | 83 | 0.0 | 3.0 | 0.00 | 0.00 | 0.00 | 20 | 1020.7 |
| 20260501140218 | 76 | 0.0 | 1.0 | 0.00 | 0.00 | 0.00 | 21 | 1020.8 | |
| 20260501135217 | 77 | 46 | 1.0 | 6.0 | 0.00 | 0.00 | 0.00 | 20 | 1021.0 |
| 20260501134217 | 77 | 109 | 0.0 | 2.0 | 0.00 | 0.00 | 0.00 | 21 | 1021.1 |